Date,TemperatureHighF,TemperatureAvgF,TemperatureLowF,DewpointHighF,DewpointAvgF,DewpointLowF,HumidityHigh,HumidityAvg,HumidityLow,PressureMaxIn,PressureMinIn,WindSpeedMaxMPH,WindSpeedAvgMPH,GustSpeedMaxMPH,PrecipitationSumIn
2013-1-1,27,16,4,-100,-100,-100,0,0,100,0.00,40.00,0,-999,0,0.04
2013-1-2,9,2,-11,-100,-100,-100,0,0,100,0.00,40.00,0,-999,0,0.02
2013-1-3,10,-3,-15,-100,-100,-100,0,0,100,0.00,40.00,0,-999,0,0.00
2013-1-4,30,20,7,-100,-100,-100,0,0,100,0.00,40.00,0,-999,0,0.00
2013-1-5,29,19,1,-100,-100,-100,0,0,100,0.00,40.00,0,-999,0,0.00
2013-1-6,25,15,2,-100,-100,-100,0,0,100,0.00,40.00,0,-999,0,0.04
2013-1-7,25,15,-2,-100,-100,-100,0,0,100,0.00,40.00,0,-999,0,0.04
2013-1-8,36,19,-2,-100,-100,-100,0,0,100,0.00,40.00,0,-999,0,0.00
2013-1-9,34,26,12,-100,-100,-100,0,0,100,0.00,40.00,0,-999,0,0.09
2013-1-10,35,33,22,-100,-100,-100,0,0,100,0.00,40.00,0,-999,0,0.02
2013-1-11,33,24,12,-100,-100,-100,0,0,100,0.00,40.00,0,-999,0,0.00
2013-1-12,39,36,32,-100,-100,-100,0,0,100,0.00,40.00,0,-999,0,0.00
2013-1-13,42,36,32,-100,-100,-100,0,0,100,0.00,40.00,0,-999,0,0.00
2013-1-14,42,38,32,-100,-100,-100,0,0,100,0.00,40.00,0,-999,0,0.00
2013-1-15,32,28,19,-100,-100,-100,0,0,100,0.00,40.00,0,-999,0,0.00
2013-1-16,29,24,20,-100,-100,-100,0,0,100,0.00,40.00,0,-999,0,0.05
2013-1-17,31,19,4,-100,-100,-100,0,0,100,0.00,40.00,0,-999,0,0.01
2013-1-18,13,2,-10,-100,-100,-100,0,0,100,0.00,40.00,0,-999,0,0.01
2013-1-19,27,19,3,-100,-100,-100,0,0,100,0.00,40.00,0,-999,0,0.00
2013-1-20,37,26,11,-100,-100,-100,0,0,100,0.00,40.00,0,-999,0,0.05
2013-1-21,16,9,-4,-100,-100,-100,0,0,100,0.00,40.00,0,-999,0,0.01
2013-1-22,11,6,-2,-100,-100,-100,0,0,100,0.00,40.00,0,-999,0,0.00
2013-1-23,-2,-9,-17,-100,-100,-100,0,0,100,0.00,40.00,0,-999,0,0.00
2013-1-24,4,-9,-23,-100,-100,-100,0,0,100,0.00,40.00,0,-999,0,0.00
2013-1-25,10,3,-3,-100,-100,-100,0,0,100,0.00,40.00,0,-999,0,0.00
2013-1-26,11,4,-5,-100,-100,-100,0,0,100,0.00,40.00,0,-999,0,0.00
2013-1-27,14,5,-8,-100,-100,-100,0,0,100,0.00,40.00,0,-999,0,0.00
2013-1-28,16,3,-12,-100,-100,-100,0,0,100,0.00,40.00,0,-999,0,0.07
2013-1-29,29,18,-1,-100,-100,-100,0,0,100,0.00,40.00,0,-999,0,0.04
2013-1-30,50,40,28,-100,-100,-100,0,0,100,0.00,40.00,0,-999,0,0.20
2013-1-31,50,33,18,-100,-100,-100,0,0,100,0.00,40.00,0,-999,0,0.60
2013-2-1,19,12,8,-100,-100,-100,0,0,100,0.00,40.00,0,-999,0,0.01
2013-2-2,18,12,1,-100,-100,-100,0,0,100,0.00,40.00,0,-999,0,0.00
2013-2-3,25,12,1,-100,-100,-100,0,0,100,0.00,40.00,0,-999,0,0.00
2013-2-4,18,13,4,-100,-100,-100,0,0,100,0.00,40.00,0,-999,0,0.00
2013-2-5,18,6,-7,-100,-100,-100,0,0,100,0.00,40.00,0,-999,0,0.00
2013-2-6,25,14,5,-100,-100,-100,0,0,100,0.00,40.00,0,-999,0,0.00
2013-2-7,12,3,-3,-100,-100,-100,0,0,100,0.00,40.00,0,-999,0,0.00
2013-2-8,22,14,6,-100,-100,-100,0,0,100,0.00,40.00,0,-999,0,0.01
2013-2-9,14,10,5,-100,-100,-100,0,0,100,0.00,40.00,0,-999,0,0.01
2013-2-10,26,6,-13,-100,-100,-100,0,0,100,0.00,40.00,0,-999,0,0.01
2013-2-11,32,19,-2,-100,-100,-100,0,0,100,0.00,40.00,0,-999,0,0.10
2013-2-12,35,32,29,-100,-100,-100,0,0,100,0.00,40.00,0,-999,0,0.03
2013-2-13,32,30,26,-100,-100,-100,0,0,100,0.00,40.00,0,-999,0,0.00
2013-2-14,32,28,23,-100,-100,-100,0,0,100,0.00,40.00,0,-999,0,0.00
2013-2-15,43,30,20,-100,-100,-100,0,0,100,0.00,40.00,0,-999,0,0.00
2013-2-16,29,25,17,-100,-100,-100,0,0,100,0.00,40.00,0,-999,0,0.00
2013-2-17,17,11,8,-100,-100,-100,0,0,100,0.00,40.00,0,-999,0,0.00
2013-2-18,19,9,1,-100,-100,-100,0,0,100,0.00,40.00,0,-999,0,0.00
2013-2-19,41,22,-2,-100,-100,-100,0,0,100,0.00,40.00,0,-999,0,0.00
2013-2-20,31,26,21,-100,-100,-100,0,0,100,0.00,40.00,0,-999,0,0.07
2013-2-21,21,14,8,-100,-100,-100,0,0,100,0.00,40.00,0,-999,0,0.01
2013-2-22,34,25,20,-100,-100,-100,0,0,100,0.00,40.00,0,-999,0,0.00
2013-2-23,34,28,20,-100,-100,-100,0,0,100,0.00,40.00,0,-999,0,0.07
2013-2-24,34,31,29,-100,-100,-100,0,0,100,0.00,40.00,0,-999,0,0.08
2013-2-25,35,31,27,-100,-100,-100,0,0,100,0.00,40.00,0,-999,0,0.06
2013-2-26,39,31,20,-100,-100,-100,0,0,100,0.00,40.00,0,-999,0,0.02
2013-2-27,36,33,32,-100,-100,-100,0,0,100,0.00,40.00,0,-999,0,0.01
2013-2-28,44,35,31,-100,-100,-100,0,0,100,0.00,40.00,0,-999,0,0.01
2013-3-1,32,30,28,-100,-100,-100,0,0,100,0.00,40.00,0,-999,0,0.01
2013-3-2,31,28,24,-100,-100,-100,0,0,100,0.00,40.00,0,-999,0,0.00
2013-3-3,30,25,23,-100,-100,-100,0,0,100,0.00,40.00,0,-999,0,0.00
2013-3-4,23,22,21,-100,-100,-100,0,0,100,0.00,40.00,0,-999,0,0.01
2013-3-5,36,28,22,-100,-100,-100,0,0,100,0.00,40.00,0,-999,0,0.01
2013-3-6,36,34,28,-100,-100,-100,0,0,100,0.00,40.00,0,-999,0,0.00
2013-3-7,34,30,28,-100,-100,-100,0,0,100,0.00,40.00,0,-999,0,0.00
2013-3-8,43,32,25,-100,-100,-100,0,0,100,0.00,40.00,0,-999,0,0.00
2013-3-9,50,31,14,-100,-100,-100,0,0,100,0.00,40.00,0,-999,0,0.00
2013-3-10,51,35,19,-100,-100,-100,0,0,100,0.00,40.00,0,-999,0,0.00
2013-3-11,52,44,35,-100,-100,-100,0,0,100,0.00,40.00,0,-999,0,0.00
2013-3-12,46,44,38,-100,-100,-100,0,0,100,0.00,40.00,0,-999,0,1.01
2013-3-13,38,35,28,-100,-100,-100,0,0,100,0.00,40.00,0,-999,0,0.38
2013-3-14,28,23,14,-100,-100,-100,0,0,100,0.00,40.00,0,-999,0,0.00
2013-3-15,30,20,11,-100,-100,-100,0,0,100,0.00,40.00,0,-999,0,0.00
2013-3-16,25,20,13,-100,-100,-100,0,0,100,0.00,40.00,0,-999,0,0.00
2013-3-17,20,12,2,-100,-100,-100,0,0,100,0.00,40.00,0,-999,0,0.00
2013-3-18,31,18,1,-100,-100,-100,0,0,100,0.00,40.00,0,-999,0,0.00
2013-3-19,29,25,21,-100,-100,-100,0,0,100,0.00,40.00,0,-999,0,0.07
2013-3-20,29,24,20,-100,-100,-100,0,0,100,0.00,40.00,0,-999,0,0.06
2013-3-21,35,25,11,-100,-100,-100,0,0,100,0.00,40.00,0,-999,0,0.01
2013-3-22,31,21,7,-100,-100,-100,0,0,100,0.00,40.00,0,-999,0,0.00
2013-3-23,31,27,23,-100,-100,-100,0,0,100,0.00,40.00,0,-999,0,0.00
2013-3-24,35,30,26,-100,-100,-100,0,0,100,0.00,40.00,0,-999,0,0.00
2013-3-25,43,30,12,-100,-100,-100,0,0,100,0.00,40.00,0,-999,0,0.00
2013-3-26,40,34,26,-100,-100,-100,0,0,100,0.00,40.00,0,-999,0,0.00
2013-3-27,40,31,20,-100,-100,-100,0,0,100,0.00,40.00,0,-999,0,0.01
2013-3-28,44,36,32,-100,-100,-100,0,0,100,0.00,40.00,0,-999,0,0.01
2013-3-29,44,38,32,-100,-100,-100,0,0,100,0.00,40.00,0,-999,0,0.01
2013-3-30,45,36,26,-100,-100,-100,0,0,100,0.00,40.00,0,-999,0,0.01
2013-3-31,52,36,19,-100,-100,-100,0,0,100,0.00,40.00,0,-999,0,0.00
2013-4-1,44,36,27,-100,-100,-100,0,0,100,0.00,40.00,0,-999,0,0.10
2013-4-2,27,23,19,-100,-100,-100,0,0,100,0.00,40.00,0,-999,0,0.01
2013-4-3,32,26,22,-100,-100,-100,0,0,100,0.00,40.00,0,-999,0,0.00
2013-4-4,48,36,22,-100,-100,-100,0,0,100,0.00,40.00,0,-999,0,0.00
2013-4-5,45,35,27,-100,-100,-100,0,0,100,0.00,40.00,0,-999,0,0.00
2013-4-6,33,25,18,-100,-100,-100,0,0,100,0.00,40.00,0,-999,0,0.00
2013-4-7,51,38,22,-100,-100,-100,0,0,100,0.00,40.00,0,-999,0,0.00
2013-4-8,49,41,32,-100,-100,-100,0,0,100,0.00,40.00,0,-999,0,0.00
2013-4-9,42,38,32,-100,-100,-100,0,0,100,0.00,40.00,0,-999,0,0.26
2013-4-10,47,40,34,-100,-100,-100,0,0,100,0.00,40.00,0,-999,0,0.02
2013-4-11,39,34,29,-100,-100,-100,0,0,100,0.00,40.00,0,-999,0,0.01
2013-4-12,33,31,28,-100,-100,-100,0,0,100,0.00,40.00,0,-999,0,0.08
2013-4-13,42,35,31,-100,-100,-100,0,0,100,0.00,40.00,0,-999,0,0.04
2013-4-14,43,36,30,-100,-100,-100,0,0,100,0.00,40.00,0,-999,0,0.05
2013-4-15,56,39,27,-100,-100,-100,0,0,100,0.00,40.00,0,-999,0,0.01
2013-4-16,56,46,34,-100,-100,-100,0,0,100,0.00,40.00,0,-999,0,0.09
2013-4-17,51,43,29,-100,-100,-100,0,0,100,0.00,40.00,0,-999,0,0.04
2013-4-18,53,40,27,-100,-100,-100,0,0,100,0.00,40.00,0,-999,0,0.01
2013-4-19,72,62,51,-100,-100,-100,0,0,100,0.00,40.00,0,-999,0,0.16
2013-4-20,61,43,34,-100,-100,-100,0,0,100,0.00,40.00,0,-999,0,0.51
2013-4-21,42,33,27,-100,-100,-100,0,0,100,0.00,40.00,0,-999,0,0.01
2013-4-22,53,37,20,-100,-100,-100,0,0,100,0.00,40.00,0,-999,0,0.00
2013-4-23,49,39,24,-100,-100,-100,0,0,100,0.00,40.00,0,-999,0,0.00
2013-4-24,73,53,35,-100,-100,-100,0,0,100,0.00,40.00,0,-999,0,0.00
2013-4-25,63,46,30,-100,-100,-100,0,0,100,0.00,40.00,0,-999,0,0.01
2013-4-26,53,40,24,-100,-100,-100,0,0,100,0.00,40.00,0,-999,0,0.01
2013-4-27,60,43,28,-100,-100,-100,0,0,100,0.00,40.00,0,-999,0,0.00
2013-4-28,68,48,28,-100,-100,-100,0,0,100,0.00,40.00,0,-999,0,0.00
2013-4-29,68,52,33,-100,-100,-100,0,0,100,0.00,40.00,0,-999,0,0.00
2013-4-30,71,55,37,-100,-100,-100,0,0,100,0.00,40.00,0,-999,0,0.00
2013-5-1,75,56,34,-100,-100,-100,0,0,100,0.00,40.00,0,-999,0,0.00
2013-5-2,76,58,37,-100,-100,-100,0,0,100,0.00,40.00,0,-999,0,0.00
2013-5-3,69,54,35,-100,-100,-100,0,0,100,0.00,40.00,0,-999,0,0.00
2013-5-4,74,56,35,-100,-100,-100,0,0,100,0.00,40.00,0,-999,0,0.00
2013-5-5,75,56,35,-100,-100,-100,0,0,100,0.00,40.00,0,-999,0,0.00
2013-5-6,77,58,37,-100,-100,-100,0,0,100,0.00,40.00,0,-999,0,0.00
2013-5-7,80,60,37,-100,-100,-100,0,0,100,0.00,40.00,0,-999,0,0.00
2013-5-8,78,60,40,-100,-100,-100,0,0,100,0.00,40.00,0,-999,0,0.00
2013-5-9,70,59,53,-100,-100,-100,0,0,100,0.00,40.00,0,-999,0,0.30
2013-5-10,71,60,55,-100,-100,-100,0,0,100,0.00,40.00,0,-999,0,0.16
2013-5-11,65,58,51,-100,-100,-100,0,0,100,0.00,40.00,0,-999,0,0.34
2013-5-12,59,50,36,-100,-100,-100,0,0,100,0.00,40.00,0,-999,0,0.09
2013-5-13,47,41,33,-100,-100,-100,0,0,100,0.00,40.00,0,-999,0,0.08
2013-5-14,51,41,28,-100,-100,-100,0,0,100,0.00,40.00,0,-999,0,0.08
2013-5-15,62,44,27,-100,-100,-100,0,0,100,0.00,40.00,0,-999,0,0.10
2013-5-16,69,53,43,-100,-100,-100,0,0,100,0.00,40.00,0,-999,0,0.08
2013-5-17,58,50,44,-100,-100,-100,0,0,100,0.00,40.00,0,-999,0,0.00
2013-5-18,66,52,37,-100,-100,-100,0,0,100,0.00,40.00,0,-999,0,0.00
2013-5-19,69,53,34,-100,-100,-100,0,0,100,0.00,40.00,0,-999,0,0.07
2013-5-20,68,57,52,-100,-100,-100,0,0,100,0.00,40.00,0,-999,0,0.35
2013-5-21,61,54,50,-100,-100,-100,0,0,100,0.00,40.00,0,-999,0,0.66
2013-5-22,69,57,49,-100,-100,-100,0,0,100,0.00,40.00,0,-999,0,1.07
2013-5-23,72,63,56,-100,-100,-100,0,0,100,0.00,40.00,0,-999,0,0.76
2013-5-24,59,50,44,-100,-100,-100,0,0,100,0.00,40.00,0,-999,0,1.01
2013-5-25,44,40,35,-100,-100,-100,0,0,100,0.00,40.00,0,-999,0,0.46
2013-5-26,47,41,35,-100,-100,-100,0,0,100,0.00,40.00,0,-999,0,0.14
2013-5-27,61,46,31,-100,-100,-100,0,0,100,0.00,40.00,0,-999,0,0.01
2013-5-28,70,52,32,-100,-100,-100,0,0,100,0.00,40.00,0,-999,0,0.00
2013-5-29,60,53,45,-100,-100,-100,0,0,100,0.00,40.00,0,-999,0,0.11
2013-5-30,79,66,56,-100,-100,-100,0,0,100,0.00,40.00,0,-999,0,0.03
2013-5-31,87,70,53,-100,-100,-100,0,0,100,0.00,40.00,0,-999,0,0.01
2013-6-1,87,72,55,-100,-100,-100,0,0,100,0.00,40.00,0,-999,0,0.00
2013-6-2,84,70,63,-100,-100,-100,0,0,100,0.00,40.00,0,-999,0,0.90
2013-6-3,69,62,49,-100,-100,-100,0,0,100,0.00,40.00,0,-999,0,0.03
2013-6-4,59,49,40,-100,-100,-100,0,0,100,0.00,40.00,0,-999,0,0.01
2013-6-5,65,52,37,-100,-100,-100,0,0,100,0.00,40.00,0,-999,0,0.00
2013-6-6,62,50,41,-100,-100,-100,0,0,100,0.00,40.00,0,-999,0,0.04
2013-6-7,54,51,48,-100,-100,-100,0,0,100,0.00,40.00,0,-999,0,0.34
2013-6-8,62,56,50,-100,-100,-100,0,0,100,0.00,40.00,0,-999,0,0.37
2013-6-9,70,60,52,-100,-100,-100,0,0,100,0.00,40.00,0,-999,0,0.01
2013-6-10,72,59,45,-100,-100,-100,0,0,100,0.00,40.00,0,-999,0,0.00
2013-6-11,59,56,53,-100,-100,-100,0,0,100,0.00,40.00,0,-999,0,0.66
2013-6-12,60,56,52,-100,-100,-100,0,0,100,0.00,40.00,0,-999,0,0.02
2013-6-13,70,57,48,-100,-100,-100,0,0,100,0.00,40.00,0,-999,0,0.01
2013-6-14,73,61,50,-100,-100,-100,0,0,100,0.00,40.00,0,-999,0,0.00
2013-6-15,69,58,42,-100,-100,-100,0,0,100,0.00,40.00,0,-999,0,0.00
2013-6-16,68,55,42,-100,-100,-100,0,0,100,0.00,40.00,0,-999,0,0.24
2013-6-17,67,60,53,-100,-100,-100,0,0,100,0.00,40.00,0,-999,0,0.05
2013-6-18,67,56,44,-100,-100,-100,0,0,100,0.00,40.00,0,-999,0,0.01
2013-6-19,66,54,41,-100,-100,-100,0,0,100,0.00,40.00,0,-999,0,0.00
2013-6-20,72,53,38,-100,-100,-100,0,0,100,0.00,40.00,0,-999,0,0.00
2013-6-22,74,68,62,-100,-100,-100,0,0,100,0.00,40.00,0,-999,0,0.05
2013-6-23,77,68,62,-100,-100,-100,0,0,100,0.00,40.00,0,-999,0,0.31
2013-6-24,84,72,63,-100,-100,-100,0,0,100,0.00,40.00,0,-999,0,0.03
2013-6-25,85,69,60,-100,-100,-100,0,0,100,0.00,40.00,0,-999,0,0.32
2013-6-26,73,67,63,-100,-100,-100,0,0,100,0.00,40.00,0,-999,0,0.07
2013-6-27,79,69,63,-100,-100,-100,0,0,100,0.00,40.00,0,-999,0,0.04
2013-6-28,72,65,59,-100,-100,-100,0,0,100,0.00,40.00,0,-999,0,0.39
2013-6-29,78,67,60,-100,-100,-100,0,0,100,0.00,40.00,0,-999,0,0.09
2013-6-30,79,70,62,-100,-100,-100,0,0,100,0.00,40.00,0,-999,0,0.03
2013-7-1,73,68,62,-100,-100,-100,0,0,100,0.00,40.00,0,-999,0,0.02
2013-7-2,67,63,62,-100,-100,-100,0,0,100,0.00,40.00,0,-999,0,0.85
2013-7-3,78,69,61,-100,-100,-100,0,0,100,0.00,40.00,0,-999,0,0.11
2013-7-4,83,71,65,-100,-100,-100,0,0,100,0.00,40.00,0,-999,0,0.36
2013-7-5,85,73,63,-100,-100,-100,0,0,100,0.00,40.00,0,-999,0,0.14
2013-7-6,80,70,63,-100,-100,-100,0,0,100,0.00,40.00,0,-999,0,0.14
2013-7-7,81,69,58,-100,-100,-100,0,0,100,0.00,40.00,0,-999,0,0.13
2013-7-8,79,68,65,-100,-100,-100,0,0,100,0.00,40.00,0,-999,0,0.15
2013-7-9,80,71,65,-100,-100,-100,0,0,100,0.00,40.00,0,-999,0,0.03
2013-7-10,74,70,67,-100,-100,-100,0,0,100,0.00,40.00,0,-999,0,0.02
2013-7-11,76,69,58,-100,-100,-100,0,0,100,0.00,40.00,0,-999,0,0.19
2013-7-12,79,66,52,-100,-100,-100,0,0,100,0.00,40.00,0,-999,0,0.01
2013-7-13,80,67,51,-100,-100,-100,0,0,100,0.00,40.00,0,-999,0,0.00
2013-7-14,85,72,60,-100,-100,-100,0,0,100,0.00,40.00,0,-999,0,0.00
2013-7-15,86,71,60,-100,-100,-100,0,0,100,0.00,40.00,0,-999,0,0.00
2013-7-16,84,74,62,-100,-100,-100,0,0,100,0.00,40.00,0,-999,0,0.00
2013-7-17,88,72,59,-100,-100,-100,0,0,100,0.00,40.00,0,-999,0,0.31
2013-7-18,84,75,67,-100,-100,-100,0,0,100,0.00,40.00,0,-999,0,0.31
2013-7-19,89,76,67,-100,-100,-100,0,0,100,0.00,40.00,0,-999,0,0.10
2013-7-20,78,70,60,-100,-100,-100,0,0,100,0.00,40.00,0,-999,0,0.15
2013-7-21,72,64,54,-100,-100,-100,0,0,100,0.00,40.00,0,-999,0,0.01
2013-7-22,76,63,47,-100,-100,-100,0,0,100,0.00,40.00,0,-999,0,0.00
2013-7-23,72,66,63,-100,-100,-100,0,0,100,0.00,40.00,0,-999,0,0.14
2013-7-24,67,61,53,-100,-100,-100,0,0,100,0.00,40.00,0,-999,0,0.08
2013-7-25,71,60,45,-100,-100,-100,0,0,100,0.00,40.00,0,-999,0,0.01
2013-7-26,72,64,55,-100,-100,-100,0,0,100,0.00,40.00,0,-999,0,0.00
2013-7-27,79,67,54,-100,-100,-100,0,0,100,0.00,40.00,0,-999,0,0.00
2013-7-28,78,66,54,-100,-100,-100,0,0,100,0.00,40.00,0,-999,0,0.02
2013-7-29,78,69,61,-100,-100,-100,0,0,100,0.00,40.00,0,-999,0,0.31
2013-7-30,72,64,56,-100,-100,-100,0,0,100,0.00,40.00,0,-999,0,0.01
2013-7-31,77,63,51,-100,-100,-100,0,0,100,0.00,40.00,0,-999,0,0.00
2013-8-1,78,63,51,-100,-100,-100,0,0,100,0.00,40.00,0,-999,0,0.07
2013-8-2,75,67,58,-100,-100,-100,0,0,100,0.00,40.00,0,-999,0,0.08
2013-8-3,69,62,55,-100,-100,-100,0,0,100,0.00,40.00,0,-999,0,0.10
2013-8-4,69,60,53,-100,-100,-100,0,0,100,0.00,40.00,0,-999,0,0.02
2013-8-5,65,57,48,-100,-100,-100,0,0,100,0.00,40.00,0,-999,0,0.02
2013-8-6,75,58,42,-100,-100,-100,0,0,100,0.00,40.00,0,-999,0,0.04
2013-8-7,77,63,46,-100,-100,-100,0,0,100,0.00,40.00,0,-999,0,0.04
2013-8-8,75,68,65,-100,-100,-100,0,0,100,0.00,40.00,0,-999,0,0.00
2013-8-9,72,68,64,-100,-100,-100,0,0,100,0.00,40.00,0,-999,0,0.59
2013-8-10,68,64,51,-100,-100,-100,0,0,100,0.00,40.00,0,-999,0,0.03
2013-8-11,72,59,45,-100,-100,-100,0,0,100,0.00,40.00,0,-999,0,0.00
2013-8-12,75,62,51,-100,-100,-100,0,0,100,0.00,40.00,0,-999,0,0.00
2013-8-13,68,60,51,-100,-100,-100,0,0,100,0.00,40.00,0,-999,0,0.01
2013-8-14,68,61,54,-100,-100,-100,0,0,100,0.00,40.00,0,-999,0,0.01
2013-8-15,70,57,45,-100,-100,-100,0,0,100,0.00,40.00,0,-999,0,0.00
2013-8-16,72,60,47,-100,-100,-100,0,0,100,0.00,40.00,0,-999,0,0.00
2013-8-17,71,60,49,-100,-100,-100,0,0,100,0.00,40.00,0,-999,0,0.00
2013-8-18,74,58,43,-100,-100,-100,0,0,100,0.00,40.00,0,-999,0,0.00
2013-8-19,77,62,47,-100,-100,-100,0,0,100,0.00,40.00,0,-999,0,0.00
2013-8-20,80,66,53,-100,-100,-100,0,0,100,0.00,40.00,0,-999,0,0.00
2013-8-21,84,68,55,-100,-100,-100,0,0,100,0.00,40.00,0,-999,0,0.00
2013-8-22,84,69,55,-100,-100,-100,0,0,100,0.00,40.00,0,-999,0,0.01
2013-8-23,68,62,48,-100,-100,-100,0,0,100,0.00,40.00,0,-999,0,0.01
2013-8-24,74,56,40,-100,-100,-100,0,0,100,0.00,40.00,0,-999,0,0.00
2013-8-25,74,58,42,-100,-100,-100,0,0,100,0.00,40.00,0,-999,0,0.00
2013-8-26,66,61,56,-100,-100,-100,0,0,100,0.00,40.00,0,-999,0,0.08
2013-8-27,82,67,61,-100,-100,-100,0,0,100,0.00,40.00,0,-999,0,0.01
2013-8-28,85,73,64,-100,-100,-100,0,0,100,0.00,40.00,0,-999,0,0.24
2013-8-29,73,65,59,-100,-100,-100,0,0,100,0.00,40.00,0,-999,0,0.24
2013-8-30,80,68,62,-100,-100,-100,0,0,100,0.00,40.00,0,-999,0,0.30
2013-8-31,75,68,62,-100,-100,-100,0,0,100,0.00,40.00,0,-999,0,0.30
2013-9-1,79,71,64,-100,-100,-100,0,0,100,0.00,40.00,0,-999,0,0.00
2013-9-2,73,69,64,-100,-100,-100,0,0,100,0.00,40.00,0,-999,0,0.40
2013-9-3,70,63,59,-100,-100,-100,0,0,100,0.00,40.00,0,-999,0,0.37
2013-9-4,71,62,56,-100,-100,-100,0,0,100,0.00,40.00,0,-999,0,0.02
2013-9-5,60,54,40,-100,-100,-100,0,0,100,0.00,40.00,0,-999,0,0.01
2013-9-6,66,48,33,-100,-100,-100,0,0,100,0.00,40.00,0,-999,0,0.00
2013-9-7,71,55,41,-100,-100,-100,0,0,100,0.00,40.00,0,-999,0,0.00
2013-9-8,58,52,38,-100,-100,-100,0,0,100,0.00,40.00,0,-999,0,0.08
2013-9-9,66,47,33,-100,-100,-100,0,0,100,0.00,40.00,0,-999,0,0.01
2013-9-10,63,54,45,-100,-100,-100,0,0,100,0.00,40.00,0,-999,0,0.02
2013-9-11,89,72,60,-100,-100,-100,0,0,100,0.00,40.00,0,-999,0,1.56
2013-9-12,73,66,63,-100,-100,-100,0,0,100,0.00,40.00,0,-999,0,1.63
2013-9-13,63,58,53,-100,-100,-100,0,0,100,0.00,40.00,0,-999,0,0.92
2013-9-14,56,52,48,-100,-100,-100,0,0,100,0.00,40.00,0,-999,0,0.41
2013-9-15,65,51,41,-100,-100,-100,0,0,100,0.00,40.00,0,-999,0,0.03
2013-9-16,52,48,38,-100,-100,-100,0,0,100,0.00,40.00,0,-999,0,0.09
2013-9-17,61,46,33,-100,-100,-100,0,0,100,0.00,40.00,0,-999,0,0.01
2013-9-18,43,36,35,-100,-100,-100,0,0,100,0.00,40.00,0,-999,0,0.00
2013-9-19,75,52,37,-100,-100,-100,0,0,100,0.00,40.00,0,-999,0,0.00
2013-9-20,78,55,43,-100,-100,-100,0,0,100,0.00,40.00,0,-999,0,0.00
2013-9-21,73,60,44,-100,-100,-100,0,0,100,0.00,40.00,0,-999,0,0.00
2013-9-22,66,56,46,-100,-100,-100,0,0,100,0.00,40.00,0,-999,0,0.66
2013-9-23,47,45,43,-100,-100,-100,0,0,100,0.00,40.00,0,-999,0,0.01
2013-9-24,50,47,43,-100,-100,-100,0,0,100,0.00,40.00,0,-999,0,0.00
2013-9-25,53,46,38,-100,-100,-100,0,0,100,0.00,40.00,0,-999,0,0.00
2013-9-26,56,49,42,-100,-100,-100,0,0,100,0.00,40.00,0,-999,0,0.00
2013-9-27,67,56,47,-100,-100,-100,0,0,100,0.00,40.00,0,-999,0,0.00
2013-9-28,74,53,41,-100,-100,-100,0,0,100,0.00,40.00,0,-999,0,0.00
2013-9-29,71,53,43,-100,-100,-100,0,0,100,0.00,40.00,0,-999,0,0.00
2013-9-30,72,53,43,-100,-100,-100,0,0,100,0.00,40.00,0,-999,0,0.00
2013-10-1,54,51,46,-100,-100,-100,0,0,100,0.00,40.00,0,-999,0,0.00
2013-10-2,73,56,45,-100,-100,-100,0,0,100,0.00,40.00,0,-999,0,0.00
2013-10-3,69,51,37,-100,-100,-100,0,0,100,0.00,40.00,0,-999,0,0.00
2013-10-4,64,51,38,-100,-100,-100,0,0,100,0.00,40.00,0,-999,0,0.00
2013-10-5,64,53,45,-100,-100,-100,0,0,100,0.00,40.00,0,-999,0,0.00
2013-10-6,54,48,40,-100,-100,-100,0,0,100,0.00,40.00,0,-999,0,0.03
2013-10-7,70,59,49,-100,-100,-100,0,0,100,0.00,40.00,0,-999,0,0.43
2013-10-8,55,48,34,-100,-100,-100,0,0,100,0.00,40.00,0,-999,0,0.43
2013-10-9,62,42,31,-100,-100,-100,0,0,100,0.00,40.00,0,-999,0,0.00
2013-10-10,67,44,30,-100,-100,-100,0,0,100,0.00,40.00,0,-999,0,0.00
2013-10-11,76,47,31,-100,-100,-100,0,0,100,0.00,40.00,0,-999,0,0.00
2013-10-12,70,52,36,-100,-100,-100,0,0,100,0.00,40.00,0,-999,0,0.00
2013-10-13,59,52,42,-100,-100,-100,0,0,100,0.00,40.00,0,-999,0,0.00
2013-10-14,52,48,40,-100,-100,-100,0,0,100,0.00,40.00,0,-999,0,0.01
2013-10-15,64,55,48,-100,-100,-100,0,0,100,0.00,40.00,0,-999,0,0.01
2013-10-16,66,54,45,-100,-100,-100,0,0,100,0.00,40.00,0,-999,0,0.00
2013-10-17,64,54,43,-100,-100,-100,0,0,100,0.00,40.00,0,-999,0,0.04
2013-10-18,58,50,43,-100,-100,-100,0,0,100,0.00,40.00,0,-999,0,0.28
2013-10-19,60,49,37,-100,-100,-100,0,0,100,0.00,40.00,0,-999,0,0.01
2013-10-20,54,48,35,-100,-100,-100,0,0,100,0.00,40.00,0,-999,0,0.02
2013-10-21,58,43,28,-100,-100,-100,0,0,100,0.00,40.00,0,-999,0,0.00
2013-10-22,51,45,32,-100,-100,-100,0,0,100,0.00,40.00,0,-999,0,0.08
2013-10-23,49,36,29,-100,-100,-100,0,0,100,0.00,40.00,0,-999,0,0.03
2013-10-24,42,35,27,-100,-100,-100,0,0,100,0.00,40.00,0,-999,0,0.00
2013-10-25,39,37,34,-100,-100,-100,0,0,100,0.00,40.00,0,-999,0,0.00
2013-10-26,40,34,25,-100,-100,-100,0,0,100,0.00,40.00,0,-999,0,0.01
2013-10-27,43,39,32,-100,-100,-100,0,0,100,0.00,40.00,0,-999,0,0.01
2013-10-28,43,34,25,-100,-100,-100,0,0,100,0.00,40.00,0,-999,0,0.00
2013-10-29,41,28,17,-100,-100,-100,0,0,100,0.00,40.00,0,-999,0,0.00
2013-10-30,39,29,21,-100,-100,-100,0,0,100,0.00,40.00,0,-999,0,0.00
2013-10-31,52,38,28,-100,-100,-100,0,0,100,0.00,40.00,0,-999,0,0.42
2013-11-1,63,58,52,-100,-100,-100,0,0,100,0.00,40.00,0,-999,0,1.06
2013-11-2,54,46,35,-100,-100,-100,0,0,100,0.00,40.00,0,-999,0,0.02
2013-11-3,35,30,22,-100,-100,-100,0,0,100,0.00,40.00,0,-999,0,0.02
2013-11-4,37,24,16,-100,-100,-100,0,0,100,0.00,40.00,0,-999,0,0.00
2013-11-5,46,29,18,-100,-100,-100,0,0,100,0.00,40.00,0,-999,0,0.00
2013-11-6,54,42,27,-100,-100,-100,0,0,100,0.00,40.00,0,-999,0,0.00
2013-11-7,53,45,34,-100,-100,-100,0,0,100,0.00,40.00,0,-999,0,0.17
2013-11-8,36,33,31,-100,-100,-100,0,0,100,0.00,40.00,0,-999,0,0.01
2013-11-9,35,32,29,-100,-100,-100,0,0,100,0.00,40.00,0,-999,0,0.00
2013-11-10,40,35,31,-100,-100,-100,0,0,100,0.00,40.00,0,-999,0,0.04
2013-11-11,39,34,31,-100,-100,-100,0,0,100,0.00,40.00,0,-999,0,0.03
2013-11-12,39,26,23,-100,-100,-100,0,0,100,0.00,40.00,0,-999,0,0.00
2013-11-13,27,22,18,-100,-100,-100,0,0,100,0.00,40.00,0,-999,0,0.00
2013-11-14,42,31,25,-100,-100,-100,0,0,100,0.00,40.00,0,-999,0,0.00
2013-11-15,48,33,26,-100,-100,-100,0,0,100,0.00,40.00,0,-999,0,0.00
2013-11-16,55,35,26,-100,-100,-100,0,0,100,0.00,40.00,0,-999,0,0.00
2013-11-17,48,38,23,-100,-100,-100,0,0,100,0.00,40.00,0,-999,0,0.03
2013-11-18,55,51,41,-100,-100,-100,0,0,100,0.00,40.00,0,-999,0,0.44
2013-11-19,41,30,26,-100,-100,-100,0,0,100,0.00,40.00,0,-999,0,0.01
2013-11-20,34,26,17,-100,-100,-100,0,0,100,0.00,40.00,0,-999,0,0.00
2013-11-21,39,26,14,-100,-100,-100,0,0,100,0.00,40.00,0,-999,0,0.02
2013-11-22,33,30,25,-100,-100,-100,0,0,100,0.00,40.00,0,-999,0,0.02
2013-11-23,36,28,18,-100,-100,-100,0,0,100,0.00,40.00,0,-999,0,0.02
2013-11-24,18,15,11,-100,-100,-100,0,0,100,0.00,40.00,0,-999,0,0.00
2013-11-25,24,15,8,-100,-100,-100,0,0,100,0.00,40.00,0,-999,0,0.00
2013-11-26,32,29,24,-100,-100,-100,0,0,100,0.00,40.00,0,-999,0,0.06
2013-11-27,45,35,30,-100,-100,-100,0,0,100,0.00,40.00,0,-999,0,0.82
2013-11-28,30,18,9,-100,-100,-100,0,0,100,0.00,40.00,0,-999,0,0.08
2013-11-29,21,12,2,-100,-100,-100,0,0,100,0.00,40.00,0,-999,0,0.00
2013-11-30,24,12,-4,-100,-100,-100,0,0,100,0.00,40.00,0,-999,0,0.00
2013-12-1,34,29,22,-100,-100,-100,0,0,100,0.00,40.00,0,-999,0,0.01
2013-12-2,35,30,27,-100,-100,-100,0,0,100,0.00,40.00,0,-999,0,0.01
2013-12-3,38,32,30,-100,-100,-100,0,0,100,0.00,40.00,0,-999,0,0.00
2013-12-4,35,30,22,-100,-100,-100,0,0,100,0.00,40.00,0,-999,0,0.00
2013-12-5,42,33,21,-100,-100,-100,0,0,100,0.00,40.00,0,-999,0,0.00
2013-12-6,41,35,31,-100,-100,-100,0,0,100,0.00,40.00,0,-999,0,0.10
2013-12-7,31,26,21,-100,-100,-100,0,0,100,0.00,40.00,0,-999,0,0.02
2013-12-8,23,18,12,-100,-100,-100,0,0,100,0.00,40.00,0,-999,0,0.00
2013-12-9,32,25,15,-100,-100,-100,0,0,100,0.00,40.00,0,-999,0,0.00
2013-12-10,33,26,17,-100,-100,-100,0,0,100,0.00,40.00,0,-999,0,0.00
2013-12-11,22,16,8,-100,-100,-100,0,0,100,0.00,40.00,0,-999,0,0.00
2013-12-12,13,8,3,-100,-100,-100,0,0,100,0.00,40.00,0,-999,0,0.00
2013-12-13,14,8,-7,-100,-100,-100,0,0,100,0.00,40.00,0,-999,0,0.00
2013-12-14,10,-4,-16,-100,-100,-100,0,0,100,0.00,40.00,0,-999,0,0.01
2013-12-15,20,17,10,-100,-100,-100,0,0,100,0.00,40.00,0,-999,0,0.16
2013-12-16,14,5,-13,-100,-100,-100,0,0,100,0.00,40.00,0,-999,0,0.02
2013-12-17,10,-5,-23,-100,-100,-100,0,0,100,0.00,40.00,0,-999,0,0.02
2013-12-18,26,16,7,-100,-100,-100,0,0,100,0.00,40.00,0,-999,0,0.02
2013-12-19,29,24,16,-100,-100,-100,0,0,100,0.00,40.00,0,-999,0,0.00
2013-12-20,32,29,26,-100,-100,-100,0,0,100,0.00,40.00,0,-999,0,0.15
2013-12-21,46,37,32,-100,-100,-100,0,0,100,0.00,40.00,0,-999,0,0.17
2013-12-22,34,34,32,-100,-100,-100,0,0,100,0.00,40.00,0,-999,0,0.77
2013-12-23,33,32,29,-100,-100,-100,0,0,100,0.00,40.00,0,-999,0,0.07
2013-12-24,29,16,5,-100,-100,-100,0,0,100,0.00,40.00,0,-999,0,0.01
2013-12-25,12,5,-2,-100,-100,-100,0,0,100,0.00,40.00,0,-999,0,0.00
2013-12-26,25,16,7,-100,-100,-100,0,0,100,0.00,40.00,0,-999,0,0.10
2013-12-27,27,21,14,-100,-100,-100,0,0,100,0.00,40.00,0,-999,0,0.01
2013-12-28,35,28,13,-100,-100,-100,0,0,100,0.00,40.00,0,-999,0,0.00
2013-12-29,38,34,32,-100,-100,-100,0,0,100,0.00,40.00,0,-999,0,0.14
2013-12-30,34,18,-4,-100,-100,-100,0,0,100,0.00,40.00,0,-999,0,0.14
2013-12-31,8,2,-5,-100,-100,-100,0,0,100,0.00,40.00,0,-999,0,0.00
2014-1-1,11,4,-7,-100,-100,-100,0,0,100,0.00,40.00,0,-999,0,0.00
2014-1-2,4,-3,-9,-100,-100,-100,0,0,100,0.00,40.00,0,-999,0,0.00